SL-8 DEB

Satellite information

Favourite Embed

Satellite Type and Status

DEBRISIN ORBIT

Key statistics

Satellite SL-8 DEB at a glance.

Uptime

16487

Days in orbit

Revolutions

≈ 14.5

Per day

Orbit

LEO

Low Earth Orbit

Inclination

82.9

Latest

Satellite identification and parameters

Extended collection of information and parameters for SL-8 DEB.

Object identification

Identified? True

Debris? True

Object name: SL-8 DEB

International designator: 1980-022C

Object number (NORAD): 12404

Object ID (CCSDS): 12404

Country: COMMONWEALTH OF INDEPENDENT STATES (CIS)

Current information (Y/N): Y

RCS size: SMALL

Orbital parameters

Period: 99.042 minutes

Inclination: 82.9106 deg

SMA: 7090.999 km

Apoapsis: 718.858 km

Periapsis: 706.871 km

RAAN: 192.3626 deg

Eccentricy: 0.0008452

Argument of periapsis: 259.1562 deg

Mean anomaly: 100.8687 deg

Mean motion: 14.5392363 rev/day

Mean motion (dot): 0.00008005 rev/day2

B* drag term: 0.0018968 1/REarth

Two-line elements (TLE)

Creation date: May 6, 2025, 3:54 a.m.

Reference frame: TEME

Reference center: EARTH

Epoch: May 5, 2025, 3:25 p.m. UTC

TLE line 0: 0 SL-8 DEB

TLE line 1: 1 12404U 80022C 25125.64289076 .00008005 00000-0 18968-2 0 9997

TLE line 2: 2 12404 82.9106 192.3626 0008452 259.1562 100.8687 14.53923630307788

Live tracking on map

Real-time ground track for satellite SL-8 DEB.

In-orbit conjunctions

A list of the most updated potential collisions computed for object SL-8 DEB.

Target Orbit TCA Probability of collision Miss distance Type
CZ-6A DEB SSO 2025-02-17 15:37:49 0.0001709935 157.0 (m) DEBRIS
ATLAS 41E R/B SSO 2024-11-09 09:17:06 0.0001338825 104.0 (m) ROCKET BODY
DELTA 1 DEB SSO 2024-09-25 22:41:47 0.0001202211 777.0 (m) DEBRIS
METEOR 2-10 LEO 2024-09-03 01:12:38 0.0001091439 107.0 (m) PAYLOAD

Associated space launch

Civilian navigation satellite equivalent to the purely military Parus

SL-8 DEB was lifted into orbit during the mission ‘Kosmos-3M | Tsikada 6’, on board a Kosmos-3M space rocket.

The launch took place on March 17, 1980, 9:37 p.m. from 132/1 (132L).

For more information about the launch, click the button.

Launch to space Kosmos-3M | Tsikada 6
Kosmos-3M | Tsikada 6

Agency: N/A

Status: Launch Successful

Launch date: March 17, 1980, 9:37 p.m. UTC

Rocket: Kosmos-3M

Launch pad: 132/1 (132L)

Location: Plesetsk Cosmodrome, Russian Federation

...

Latest news about this satellite

There are no fresh news available about this satellite. Check back as we update our databases every day.


Newsletter sign-up

Weekly statistics, charts and insights to help you stay on top of the space industry.